QPF
0.00 0.00 0.00 0.00 0.00 0.00 0.00 0.00 0.00 0.00 0.00 0.00 0.01 0.01 0.01 0.01 0.01 0.01 0.01 0.02 0.04 0.04 0.04 0.08 0.15 0.17 0.15 0.16 0.13 0.09 0.10 0.12 0.13 0.09 0.09 0.07 0.06 0.06 0.05 0.05 0.05 0.04 0.03 0.02
0.00 0.00 0.00 0.00 0.00 0.00 0.00 0.00 0.00 0.00 0.00 0.00 0.00 0.00 0.01 0.01 0.01 0.01 0.02 0.02 0.04 0.03 0.04 0.06 0.10 0.10 0.09 0.09 0.08 0.06 0.07 0.09 0.09 0.06 0.07 0.09 0.10 0.10 0.10 0.12 0.09 0.07 0.06 0.04
0.00 0.00 0.00 0.00 0.00 0.00 0.00 0.00 0.00 0.00 0.00 0.00 0.00 0.00 0.01 0.01 0.01 0.02 0.02 0.02 0.05 0.05 0.04 0.04 0.05 0.05 0.06 0.07 0.06 0.04 0.06 0.08 0.09 0.10 0.11 0.12 0.14 0.13 0.12 0.11 0.09 0.07 0.06 0.06
0.00 0.00 0.00 0.00 0.00 0.00 0.00 0.00 0.00 0.00 0.00 0.00 0.01 0.01 0.01 0.01 0.00 0.01 0.01 0.01 0.04 0.05 0.04 0.04 0.04 0.04 0.04 0.06 0.08 0.06 0.07 0.09 0.09 0.10 0.13 0.12 0.08 0.06 0.05 0.05 0.05 0.06 0.06 0.07
0.00 0.00 0.00 0.00 0.00 0.00 0.00 0.00 0.00 0.01 0.01 0.01 0.01 0.01 0.00 0.01 0.00 0.00 0.01 0.01 0.01 0.02 0.05 0.04 0.03 0.04 0.05 0.07 0.10 0.10 0.09 0.11 0.11 0.09 0.10 0.17 0.14 0.08 0.06 0.06 0.05 0.04 0.06 0.06
0.00 0.00 0.00 0.00 0.00 0.00 0.00 0.00 0.01 0.01 0.01 0.01 0.00 0.00 0.00 0.00 0.00 0.00 0.00 0.01 0.01 0.01 0.02 0.03 0.04 0.05 0.07 0.09 0.11 0.11 0.10 0.10 0.10 0.10 0.08 0.10 0.13 0.08 0.05 0.04 0.03 0.03 0.03 0.03
0.00 0.00 0.00 0.00 0.00 0.00 0.00 0.01 0.01 0.01 0.00 0.00 0.00 0.00 0.00 0.00 0.00 0.00 0.00 0.00 0.00 0.01 0.01 0.02 0.03 0.04 0.06 0.07 0.07 0.09 0.09 0.10 0.11 0.12 0.11 0.07 0.06 0.05 0.04 0.03 0.03 0.02 0.02 0.01
0.00 0.00 0.00 0.00 0.00 0.00 0.00 0.00 0.00 0.00 0.00 0.00 0.00 0.00 0.00 0.00 0.00 0.00 0.00 0.01 0.01 0.02 0.02 0.02 0.02 0.04 0.06 0.08 0.07 0.08 0.08 0.08 0.09 0.10 0.11 0.07 0.05 0.04 0.03 0.03 0.03 0.02 0.01 0.01
0.00 0.00 0.00 0.00 0.00 0.00 0.01 0.00 0.00 0.00 0.00 0.00 0.00 0.00 0.00 0.00 0.00 0.00 0.00 0.02 0.02 0.02 0.03 0.04 0.04 0.06 0.06 0.06 0.06 0.06 0.07 0.08 0.07 0.08 0.10 0.08 0.05 0.04 0.04 0.04 0.04 0.03 0.02 0.02
0.00 0.00 0.00 0.00 0.00 0.01 0.00 0.00 0.01 0.00 0.01 0.00 0.00 0.00 0.00 0.00 0.00 0.00 0.00 0.02 0.02 0.02 0.03 0.05 0.06 0.07 0.06 0.07 0.07 0.07 0.07 0.09 0.07 0.07 0.09 0.08 0.04 0.04 0.04 0.05 0.05 0.03 0.03 0.04
0.00 0.00 0.00 0.00 0.00 0.00 0.00 0.00 0.00 0.00 0.01 0.01 0.00 0.00 0.00 0.00 0.00 0.01 0.00 0.01 0.02 0.02 0.02 0.04 0.07 0.09 0.07 0.08 0.10 0.09 0.10 0.10 0.07 0.07 0.08 0.08 0.05 0.04 0.05 0.05 0.04 0.03 0.04 0.04
0.00 0.00 0.00 0.00 0.00 0.00 0.00 0.00 0.00 0.00 0.00 0.01 0.00 0.00 0.00 0.00 0.00 0.00 0.01 0.01 0.02 0.02 0.02 0.04 0.06 0.10 0.09 0.08 0.11 0.11 0.12 0.13 0.08 0.07 0.08 0.08 0.07 0.05 0.04 0.05 0.05 0.04 0.04 0.03
0.00 0.00 0.00 0.00 0.00 0.00 0.00 0.00 0.00 0.00 0.01 0.01 0.00 0.00 0.00 0.01 0.01 0.01 0.01 0.01 0.01 0.02 0.02 0.04 0.07 0.08 0.08 0.06 0.07 0.08 0.09 0.10 0.11 0.09 0.07 0.07 0.06 0.05 0.04 0.06 0.06 0.04 0.04 0.04
0.00 0.00 0.00 0.00 0.00 0.00 0.01 0.01 0.00 0.00 0.00 0.00 0.00 0.00 0.00 0.00 0.00 0.00 0.01 0.01 0.01 0.01 0.02 0.05 0.06 0.05 0.05 0.05 0.05 0.04 0.07 0.06 0.07 0.09 0.07 0.05 0.05 0.07 0.07 0.07 0.07 0.05 0.04 0.06
0.00 0.00 0.00 0.00 0.00 0.00 0.01 0.01 0.01 0.00 0.00 0.00 0.00 0.00 0.00 0.00 0.01 0.01 0.01 0.01 0.02 0.02 0.03 0.05 0.07 0.05 0.04 0.04 0.04 0.04 0.06 0.07 0.07 0.07 0.06 0.05 0.08 0.10 0.09 0.06 0.05 0.07 0.07 0.07
0.01 0.01 0.00 0.00 0.01 0.01 0.01 0.01 0.01 0.01 0.00 0.00 0.00 0.00 0.00 0.01 0.01 0.01 0.01 0.03 0.04 0.02 0.03 0.04 0.07 0.07 0.06 0.05 0.04 0.03 0.05 0.07 0.06 0.06 0.05 0.06 0.07 0.08 0.07 0.07 0.08 0.07 0.07 0.07
0.01 0.01 0.01 0.01 0.01 0.01 0.01 0.01 0.01 0.01 0.01 0.01 0.01 0.00 0.01 0.01 0.02 0.01 0.01 0.02 0.02 0.02 0.03 0.05 0.06 0.07 0.07 0.06 0.06 0.05 0.04 0.05 0.07 0.06 0.05 0.05 0.05 0.06 0.06 0.08 0.07 0.05 0.04 0.04
0.01 0.01 0.01 0.01 0.02 0.02 0.01 0.01 0.01 0.01 0.01 0.01 0.01 0.00 0.01 0.01 0.01 0.02 0.01 0.01 0.02 0.02 0.02 0.04 0.05 0.05 0.07 0.07 0.08 0.09 0.07 0.06 0.05 0.05 0.04 0.04 0.04 0.05 0.04 0.04 0.04 0.04 0.03 0.03
0.01 0.01 0.01 0.01 0.01 0.01 0.02 0.01 0.02 0.02 0.02 0.02 0.01 0.01 0.01 0.01 0.01 0.03 0.02 0.02 0.02 0.01 0.01 0.01 0.03 0.04 0.06 0.10 0.12 0.14 0.14 0.08 0.04 0.03 0.04 0.04 0.04 0.04 0.05 0.06 0.05 0.04 0.04 0.04
0.02 0.02 0.01 0.01 0.01 0.01 0.01 0.02 0.02 0.02 0.03 0.02 0.03 0.02 0.02 0.03 0.03 0.04 0.02 0.02 0.02 0.02 0.02 0.02 0.03 0.05 0.04 0.06 0.09 0.09 0.11 0.12 0.06 0.03 0.04 0.05 0.04 0.03 0.04 0.04 0.05 0.03 0.03 0.03
0.02 0.02 0.02 0.01 0.01 0.01 0.02 0.02 0.02 0.02 0.02 0.03 0.04 0.04 0.05 0.07 0.06 0.04 0.03 0.04 0.03 0.03 0.03 0.04 0.04 0.04 0.04 0.04 0.04 0.04 0.05 0.07 0.07 0.06 0.04 0.04 0.03 0.03 0.02 0.02 0.02 0.02 0.02 0.02
0.02 0.02 0.01 0.01 0.01 0.01 0.01 0.02 0.03 0.03 0.02 0.03 0.03 0.04 0.06 0.10 0.09 0.04 0.03 0.04 0.05 0.07 0.06 0.05 0.05 0.04 0.04 0.03 0.03 0.03 0.03 0.04 0.06 0.05 0.02 0.02 0.04 0.03 0.03 0.02 0.02 0.02 0.02 0.02
0.02 0.02 0.02 0.02 0.02 0.02 0.02 0.03 0.03 0.03 0.03 0.03 0.04 0.03 0.05 0.09 0.07 0.03 0.03 0.04 0.06 0.13 0.09 0.06 0.07 0.06 0.03 0.03 0.03 0.03 0.04 0.04 0.04 0.02 0.01 0.02 0.04 0.06 0.07 0.06 0.05 0.04 0.04 0.04
0.03 0.03 0.03 0.03 0.03 0.02 0.02 0.03 0.03 0.03 0.03 0.02 0.02 0.04 0.06 0.08 0.05 0.03 0.03 0.04 0.04 0.10 0.10 0.08 0.08 0.06 0.04 0.05 0.07 0.08 0.08 0.08 0.06 0.04 0.05 0.04 0.04 0.04 0.07 0.10 0.10 0.08 0.06 0.05
0.03 0.03 0.04 0.04 0.03 0.03 0.03 0.03 0.03 0.02 0.03 0.02 0.03 0.05 0.07 0.07 0.05 0.04 0.03 0.04 0.03 0.04 0.06 0.07 0.06 0.06 0.06 0.06 0.07 0.09 0.09 0.08 0.06 0.03 0.03 0.04 0.04 0.04 0.06 0.07 0.10 0.11 0.10 0.09
0.02 0.02 0.04 0.05 0.04 0.04 0.03 0.03 0.03 0.03 0.04 0.04 0.04 0.04 0.06 0.06 0.04 0.03 0.03 0.04 0.03 0.03 0.04 0.05 0.05 0.05 0.05 0.05 0.06 0.07 0.09 0.09 0.07 0.05 0.04 0.04 0.04 0.04 0.05 0.05 0.07 0.10 0.09 0.10
MSLP
1007.76 1008.41 1008.79 1008.93 1008.89 1008.78 1008.68 1008.66 1008.74 1008.91 1009.13 1009.32 1009.45 1009.49 1009.44 1009.33 1009.21 1009.14 1009.15 1009.25 1009.42 1009.61 1009.76 1009.83 1009.79 1009.65 1009.44 1009.25 1009.16 1009.23 1009.52 1010.04 1010.75 1011.57 1012.44 1013.26 1013.96 1014.51 1014.89 1015.15 1015.34 1015.51 1015.71 1015.98
1008.03 1008.54 1008.77 1008.78 1008.67 1008.54 1008.49 1008.57 1008.80 1009.11 1009.45 1009.73 1009.88 1009.88 1009.73 1009.50 1009.25 1009.05 1008.97 1009.02 1009.18 1009.40 1009.61 1009.73 1009.75 1009.64 1009.46 1009.27 1009.17 1009.23 1009.52 1010.04 1010.77 1011.64 1012.54 1013.39 1014.12 1014.66 1015.03 1015.26 1015.40 1015.53 1015.70 1015.96
1007.96 1008.35 1008.48 1008.43 1008.31 1008.24 1008.31 1008.55 1008.94 1009.41 1009.86 1010.19 1010.33 1010.24 1009.97 1009.56 1009.14 1008.80 1008.60 1008.59 1008.75 1009.01 1009.29 1009.52 1009.62 1009.60 1009.49 1009.34 1009.26 1009.33 1009.63 1010.16 1010.90 1011.78 1012.70 1013.57 1014.29 1014.84 1015.19 1015.40 1015.51 1015.61 1015.76 1016.00
1007.60 1007.90 1007.99 1007.94 1007.90 1007.97 1008.21 1008.66 1009.25 1009.87 1010.42 1010.77 1010.85 1010.64 1010.18 1009.57 1008.95 1008.42 1008.10 1008.02 1008.16 1008.47 1008.84 1009.19 1009.42 1009.52 1009.51 1009.44 1009.41 1009.51 1009.81 1010.34 1011.06 1011.93 1012.84 1013.70 1014.43 1014.97 1015.31 1015.51 1015.61 1015.70 1015.84 1016.07
1007.07 1007.31 1007.39 1007.42 1007.52 1007.78 1008.25 1008.93 1009.72 1010.50 1011.13 1011.47 1011.46 1011.09 1010.42 1009.58 1008.73 1008.01 1007.54 1007.37 1007.50 1007.85 1008.31 1008.78 1009.16 1009.40 1009.50 1009.53 1009.56 1009.69 1009.99 1010.50 1011.20 1012.03 1012.91 1013.74 1014.45 1014.98 1015.33 1015.53 1015.65 1015.75 1015.89 1016.13
1006.48 1006.68 1006.79 1006.93 1007.21 1007.70 1008.42 1009.34 1010.33 1011.25 1011.92 1012.24 1012.11 1011.57 1010.68 1009.60 1008.51 1007.60 1006.98 1006.73 1006.82 1007.21 1007.76 1008.34 1008.86 1009.23 1009.46 1009.59 1009.68 1009.84 1010.13 1010.61 1011.25 1012.02 1012.84 1013.63 1014.31 1014.83 1015.19 1015.42 1015.56 1015.69 1015.87 1016.12
1005.95 1006.12 1006.28 1006.54 1007.00 1007.72 1008.68 1009.81 1010.97 1011.99 1012.69 1012.95 1012.71 1011.99 1010.89 1009.60 1008.31 1007.22 1006.47 1006.13 1006.20 1006.61 1007.22 1007.91 1008.54 1009.04 1009.38 1009.59 1009.75 1009.92 1010.20 1010.62 1011.20 1011.90 1012.65 1013.38 1014.02 1014.54 1014.91 1015.16 1015.35 1015.53 1015.74 1016.02
1005.55 1005.68 1005.89 1006.26 1006.88 1007.78 1008.93 1010.22 1011.50 1012.57 1013.27 1013.46 1013.11 1012.24 1010.99 1009.53 1008.09 1006.87 1006.02 1005.62 1005.67 1006.09 1006.75 1007.51 1008.23 1008.82 1009.25 1009.54 1009.73 1009.92 1010.18 1010.56 1011.06 1011.68 1012.35 1013.02 1013.63 1014.13 1014.51 1014.80 1015.03 1015.25 1015.52 1015.84
1005.32 1005.40 1005.62 1006.07 1006.80 1007.82 1009.08 1010.46 1011.78 1012.85 1013.51 1013.64 1013.19 1012.22 1010.87 1009.32 1007.80 1006.52 1005.63 1005.20 1005.24 1005.66 1006.34 1007.14 1007.92 1008.58 1009.07 1009.41 1009.65 1009.85 1010.09 1010.42 1010.87 1011.41 1012.01 1012.62 1013.19 1013.67 1014.06 1014.38 1014.66 1014.93 1015.23 1015.59
1005.22 1005.25 1005.47 1005.94 1006.71 1007.77 1009.06 1010.44 1011.73 1012.75 1013.33 1013.38 1012.87 1011.86 1010.48 1008.93 1007.42 1006.16 1005.28 1004.86 1004.90 1005.33 1006.02 1006.83 1007.62 1008.31 1008.84 1009.21 1009.48 1009.70 1009.94 1010.25 1010.65 1011.14 1011.69 1012.25 1012.78 1013.25 1013.64 1013.98 1014.29 1014.60 1014.94 1015.33
1005.22 1005.21 1005.40 1005.85 1006.60 1007.62 1008.84 1010.13 1011.31 1012.22 1012.71 1012.69 1012.15 1011.15 1009.82 1008.35 1006.94 1005.77 1004.98 1004.61 1004.68 1005.10 1005.77 1006.55 1007.33 1008.01 1008.55 1008.95 1009.24 1009.48 1009.74 1010.05 1010.44 1010.90 1011.42 1011.94 1012.45 1012.90 1013.29 1013.64 1013.97 1014.30 1014.66 1015.07
1005.28 1005.23 1005.38 1005.79 1006.47 1007.39 1008.48 1009.61 1010.62 1011.37 1011.74 1011.65 1011.11 1010.17 1008.96 1007.65 1006.41 1005.40 1004.73 1004.45 1004.55 1004.96 1005.60 1006.33 1007.05 1007.69 1008.22 1008.62 1008.93 1009.21 1009.50 1009.83 1010.23 1010.70 1011.20 1011.70 1012.19 1012.62 1013.01 1013.36 1013.69 1014.03 1014.39 1014.81
1005.37 1005.31 1005.43 1005.78 1006.36 1007.14 1008.05 1008.98 1009.78 1010.35 1010.58 1010.43 1009.91 1009.06 1008.02 1006.91 1005.89 1005.08 1004.57 1004.39 1004.53 1004.93 1005.51 1006.16 1006.80 1007.38 1007.86 1008.25 1008.58 1008.88 1009.21 1009.58 1010.01 1010.49 1010.99 1011.49 1011.96 1012.38 1012.76 1013.09 1013.41 1013.74 1014.10 1014.51
1005.48 1005.43 1005.54 1005.85 1006.33 1006.96 1007.67 1008.37 1008.95 1009.32 1009.42 1009.21 1008.71 1007.98 1007.12 1006.24 1005.45 1004.87 1004.53 1004.46 1004.64 1005.01 1005.52 1006.07 1006.60 1007.09 1007.50 1007.86 1008.18 1008.51 1008.87 1009.28 1009.74 1010.24 1010.75 1011.24 1011.69 1012.10 1012.45 1012.77 1013.08 1013.39 1013.73 1014.12
1005.61 1005.61 1005.74 1006.01 1006.42 1006.91 1007.43 1007.91 1008.27 1008.44 1008.40 1008.13 1007.66 1007.05 1006.37 1005.73 1005.18 1004.81 1004.64 1004.67 1004.88 1005.22 1005.63 1006.07 1006.49 1006.86 1007.18 1007.49 1007.79 1008.12 1008.50 1008.93 1009.41 1009.91 1010.41 1010.89 1011.33 1011.71 1012.04 1012.33 1012.61 1012.90 1013.22 1013.58
1005.78 1005.84 1006.01 1006.29 1006.64 1007.01 1007.37 1007.65 1007.81 1007.81 1007.65 1007.33 1006.89 1006.38 1005.88 1005.43 1005.11 1004.93 1004.90 1005.02 1005.25 1005.56 1005.88 1006.20 1006.48 1006.73 1006.96 1007.19 1007.44 1007.75 1008.11 1008.54 1009.01 1009.50 1009.98 1010.43 1010.83 1011.17 1011.47 1011.73 1011.99 1012.26 1012.55 1012.89
1005.98 1006.12 1006.35 1006.65 1006.96 1007.26 1007.49 1007.62 1007.61 1007.47 1007.20 1006.84 1006.42 1006.01 1005.65 1005.38 1005.24 1005.22 1005.33 1005.52 1005.76 1006.02 1006.26 1006.46 1006.61 1006.74 1006.87 1007.01 1007.20 1007.45 1007.77 1008.16 1008.58 1009.03 1009.46 1009.85 1010.20 1010.50 1010.75 1010.99 1011.21 1011.46 1011.74 1012.05
1006.21 1006.42 1006.71 1007.04 1007.35 1007.60 1007.75 1007.76 1007.64 1007.39 1007.05 1006.66 1006.27 1005.93 1005.69 1005.56 1005.57 1005.68 1005.89 1006.13 1006.38 1006.60 1006.77 1006.87 1006.92 1006.94 1006.95 1007.00 1007.11 1007.29 1007.54 1007.85 1008.20 1008.56 1008.91 1009.22 1009.50 1009.73 1009.94 1010.13 1010.33 1010.56 1010.82 1011.11
1006.45 1006.71 1007.05 1007.41 1007.74 1007.97 1008.07 1008.02 1007.83 1007.52 1007.13 1006.73 1006.37 1006.10 1005.95 1005.94 1006.06 1006.28 1006.55 1006.84 1007.10 1007.29 1007.40 1007.43 1007.40 1007.32 1007.25 1007.21 1007.23 1007.31 1007.47 1007.68 1007.93 1008.18 1008.41 1008.63 1008.81 1008.96 1009.10 1009.25 1009.42 1009.62 1009.86 1010.14
1006.67 1006.96 1007.33 1007.73 1008.07 1008.30 1008.39 1008.32 1008.10 1007.77 1007.39 1007.00 1006.69 1006.48 1006.40 1006.48 1006.68 1006.98 1007.31 1007.63 1007.90 1008.08 1008.15 1008.13 1008.04 1007.90 1007.76 1007.64 1007.57 1007.56 1007.61 1007.70 1007.82 1007.94 1008.04 1008.13 1008.19 1008.25 1008.31 1008.39 1008.52 1008.69 1008.91 1009.17
1006.86 1007.16 1007.55 1007.96 1008.33 1008.58 1008.69 1008.63 1008.43 1008.12 1007.77 1007.43 1007.16 1007.02 1007.01 1007.16 1007.43 1007.77 1008.14 1008.49 1008.76 1008.94 1009.00 1008.95 1008.82 1008.64 1008.45 1008.27 1008.12 1008.02 1007.96 1007.92 1007.90 1007.87 1007.83 1007.77 1007.70 1007.63 1007.59 1007.60 1007.66 1007.79 1007.98 1008.22
1007.02 1007.31 1007.71 1008.14 1008.52 1008.80 1008.95 1008.93 1008.78 1008.53 1008.25 1007.97 1007.78 1007.70 1007.77 1007.97 1008.28 1008.66 1009.05 1009.41 1009.69 1009.86 1009.92 1009.86 1009.71 1009.51 1009.28 1009.05 1008.84 1008.65 1008.48 1008.32 1008.15 1007.97 1007.77 1007.55 1007.32 1007.12 1006.96 1006.85 1006.83 1006.89 1007.03 1007.23
1007.18 1007.46 1007.86 1008.29 1008.70 1009.02 1009.21 1009.26 1009.19 1009.03 1008.83 1008.65 1008.54 1008.53 1008.65 1008.90 1009.24 1009.64 1010.04 1010.39 1010.67 1010.84 1010.89 1010.82 1010.67 1010.45 1010.20 1009.93 1009.66 1009.39 1009.12 1008.83 1008.52 1008.19 1007.82 1007.43 1007.04 1006.68 1006.37 1006.13 1005.99 1005.95 1006.01 1006.16
1007.38 1007.65 1008.05 1008.49 1008.91 1009.27 1009.52 1009.65 1009.67 1009.61 1009.51 1009.44 1009.42 1009.49 1009.67 1009.95 1010.31 1010.70 1011.09 1011.43 1011.69 1011.84 1011.88 1011.81 1011.65 1011.42 1011.14 1010.84 1010.51 1010.17 1009.81 1009.40 1008.96 1008.47 1007.94 1007.38 1006.82 1006.28 1005.80 1005.40 1005.12 1004.95 1004.90 1004.96
1007.66 1007.94 1008.33 1008.78 1009.23 1009.62 1009.93 1010.14 1010.25 1010.29 1010.31 1010.33 1010.41 1010.55 1010.78 1011.09 1011.45 1011.83 1012.20 1012.51 1012.73 1012.86 1012.87 1012.78 1012.61 1012.36 1012.06 1011.72 1011.35 1010.94 1010.49 1009.98 1009.41 1008.78 1008.10 1007.37 1006.64 1005.92 1005.26 1004.69 1004.23 1003.90 1003.71 1003.66
1008.07 1008.37 1008.77 1009.22 1009.68 1010.11 1010.46 1010.74 1010.94 1011.08 1011.20 1011.33 1011.48 1011.69 1011.96 1012.28 1012.64 1013.00 1013.33 1013.60 1013.78 1013.87 1013.85 1013.73 1013.53 1013.25 1012.93 1012.55 1012.13 1011.66 1011.13 1010.54 1009.86 1009.11 1008.29 1007.42 1006.52 1005.64 1004.80 1004.05 1003.41 1002.92 1002.57 1002.38
Thickness
5746 5734 5728 5737 5744 5747 5747 5744 5742 5752 5766 5762 5757 5757 5764 5768 5768 5766 5765 5765 5765 5765 5767 5765 5762 5760 5756 5753 5750 5748 5746 5744 5741 5738 5735 5732 5730 5730 5730 5730 5730 5730 5729 5728
5730 5728 5743 5749 5748 5747 5745 5740 5741 5750 5762 5759 5752 5754 5762 5766 5766 5768 5767 5766 5765 5763 5761 5761 5759 5757 5755 5752 5750 5747 5745 5743 5741 5739 5737 5734 5731 5729 5729 5728 5728 5728 5727 5727
5727 5739 5750 5746 5742 5739 5739 5738 5741 5743 5751 5754 5750 5745 5753 5762 5767 5767 5768 5768 5767 5765 5763 5761 5759 5757 5754 5752 5750 5749 5746 5743 5740 5738 5735 5731 5728 5726 5725 5724 5725 5725 5725 5725
5731 5745 5747 5742 5741 5741 5732 5749 5749 5744 5734 5726 5738 5721 5744 5753 5757 5761 5763 5764 5764 5766 5765 5762 5761 5758 5756 5754 5751 5748 5745 5742 5740 5737 5734 5731 5727 5724 5725 5724 5724 5724 5723 5723
5728 5741 5741 5738 5745 5748 5744 5754 5748 5742 5730 5721 5726 5718 5730 5746 5748 5756 5762 5764 5766 5767 5766 5764 5763 5761 5759 5756 5751 5748 5744 5740 5739 5737 5734 5731 5728 5726 5724 5723 5722 5721 5721 5720
5735 5749 5749 5750 5757 5757 5752 5742 5732 5721 5714 5704 5719 5714 5721 5736 5750 5758 5763 5765 5766 5767 5767 5765 5763 5760 5757 5755 5750 5746 5742 5739 5738 5736 5734 5731 5728 5725 5723 5721 5720 5719 5718 5718
5725 5738 5751 5758 5746 5748 5742 5717 5696 5695 5687 5695 5716 5714 5723 5751 5759 5761 5763 5765 5767 5767 5766 5764 5761 5758 5755 5752 5749 5745 5741 5739 5737 5735 5732 5731 5728 5726 5724 5722 5720 5718 5717 5716
5706 5711 5739 5750 5745 5735 5732 5722 5696 5686 5685 5695 5710 5709 5733 5757 5763 5765 5766 5767 5766 5765 5765 5764 5762 5759 5756 5752 5749 5745 5741 5739 5737 5734 5731 5729 5728 5725 5724 5723 5721 5720 5718 5718
5703 5710 5743 5754 5757 5746 5727 5719 5724 5700 5696 5692 5699 5715 5737 5755 5757 5760 5761 5762 5761 5762 5763 5762 5760 5758 5756 5753 5750 5746 5742 5739 5736 5734 5731 5728 5727 5725 5724 5722 5721 5720 5719 5718
5718 5712 5733 5748 5750 5744 5740 5725 5706 5695 5683 5683 5699 5707 5718 5741 5747 5752 5754 5756 5758 5759 5760 5760 5760 5758 5757 5754 5751 5747 5743 5739 5736 5734 5732 5729 5727 5726 5724 5721 5720 5719 5718 5718
5723 5713 5722 5732 5729 5726 5725 5718 5707 5696 5697 5684 5684 5703 5739 5743 5748 5749 5752 5756 5756 5756 5757 5757 5758 5758 5756 5753 5749 5745 5741 5738 5735 5734 5731 5729 5727 5725 5723 5721 5719 5718 5717 5716
5718 5706 5702 5718 5735 5743 5736 5724 5712 5701 5694 5692 5690 5707 5749 5748 5750 5750 5751 5755 5756 5756 5755 5755 5755 5754 5752 5750 5747 5744 5741 5738 5736 5733 5730 5729 5727 5725 5722 5720 5719 5718 5716 5715
5714 5700 5689 5697 5711 5727 5726 5723 5719 5709 5695 5686 5689 5712 5745 5745 5746 5748 5749 5751 5753 5753 5753 5752 5751 5749 5748 5747 5745 5743 5740 5737 5735 5732 5729 5727 5726 5724 5722 5720 5719 5717 5715 5714
5721 5699 5695 5690 5699 5715 5719 5719 5716 5710 5694 5691 5702 5718 5734 5738 5740 5744 5746 5747 5748 5749 5749 5748 5747 5745 5744 5743 5743 5741 5738 5736 5734 5731 5729 5726 5725 5724 5722 5720 5718 5716 5715 5714
5714 5699 5703 5710 5718 5720 5722 5721 5718 5716 5711 5706 5714 5719 5730 5736 5739 5743 5745 5744 5744 5743 5744 5745 5744 5743 5741 5740 5739 5739 5737 5734 5733 5730 5727 5726 5725 5723 5721 5719 5717 5715 5714 5714
5700 5697 5700 5703 5713 5716 5714 5718 5718 5718 5717 5717 5719 5721 5734 5737 5739 5739 5740 5740 5739 5740 5742 5743 5742 5741 5740 5739 5738 5736 5734 5733 5731 5728 5726 5725 5723 5721 5719 5718 5716 5714 5713 5712
5688 5690 5686 5685 5701 5706 5696 5709 5714 5717 5721 5720 5715 5723 5730 5731 5732 5733 5736 5738 5737 5739 5740 5740 5740 5739 5739 5738 5737 5735 5733 5731 5729 5727 5725 5724 5722 5719 5718 5717 5714 5712 5711 5710
5684 5680 5675 5676 5685 5675 5695 5716 5719 5716 5716 5720 5722 5725 5726 5728 5730 5732 5734 5734 5736 5738 5738 5739 5739 5737 5737 5736 5736 5734 5731 5729 5727 5724 5723 5722 5720 5718 5716 5715 5713 5712 5710 5709
5683 5679 5669 5665 5668 5677 5695 5707 5710 5707 5706 5714 5716 5720 5722 5725 5727 5727 5731 5733 5735 5737 5738 5739 5739 5737 5735 5734 5733 5732 5729 5727 5724 5723 5721 5721 5719 5717 5715 5713 5712 5711 5709 5708
5673 5675 5669 5662 5664 5665 5687 5704 5712 5707 5695 5710 5712 5714 5716 5719 5711 5716 5725 5729 5732 5734 5736 5736 5736 5735 5733 5732 5732 5730 5727 5724 5723 5722 5722 5720 5719 5716 5715 5713 5712 5711 5709 5707
5658 5658 5658 5658 5659 5669 5687 5698 5705 5687 5692 5704 5707 5710 5711 5710 5711 5714 5720 5723 5726 5728 5731 5732 5731 5730 5729 5730 5729 5727 5725 5723 5723 5722 5720 5718 5717 5716 5714 5712 5711 5709 5707 5705
5649 5649 5649 5651 5653 5661 5683 5690 5688 5689 5696 5699 5701 5704 5705 5705 5708 5711 5713 5716 5719 5721 5723 5724 5725 5724 5725 5726 5725 5723 5721 5722 5721 5719 5717 5715 5714 5713 5712 5709 5708 5706 5704 5701
5643 5648 5650 5653 5656 5666 5674 5679 5684 5688 5690 5692 5695 5699 5699 5699 5701 5704 5706 5709 5711 5713 5716 5718 5718 5717 5718 5719 5720 5718 5718 5718 5717 5716 5714 5712 5711 5709 5709 5707 5705 5703 5701 5699
5637 5644 5646 5649 5654 5661 5667 5673 5678 5682 5685 5687 5691 5692 5693 5693 5694 5696 5697 5699 5702 5706 5708 5710 5710 5711 5711 5713 5714 5714 5714 5714 5713 5711 5709 5708 5706 5705 5704 5703 5702 5700 5698 5696
5630 5636 5639 5643 5649 5655 5659 5664 5669 5674 5678 5680 5682 5684 5685 5685 5686 5688 5689 5691 5694 5697 5700 5702 5703 5704 5705 5706 5707 5708 5709 5710 5708 5707 5705 5704 5703 5701 5699 5698 5696 5696 5695 5695
5622 5628 5633 5638 5644 5647 5649 5655 5661 5664 5668 5671 5673 5674 5676 5677 5677 5679 5681 5683 5687 5690 5692 5694 5695 5697 5699 5700 5700 5702 5703 5704 5703 5701 5700 5699 5698 5696 5694 5691 5688 5686 5687 5686